Theta_e
343 351 351 347 349 346 348 348 349 349 347 347 349 350 350 350 349 349 349 349 346 346 349 349 347 346 347 347 347 346 346 346 346 345 344 342 342 342 342 342 342 342 341 341 341 341 341 342 342 341 342 343 343 345 344 344 344 341 341 339 340 339
340 347 348 346 346 348 349 349 349 346 347 349 350 351 351 348 347 350 349 349 350 347 345 345 346 345 349 346 348 345 344 346 346 345 344 342 342 342 342 342 341 340 341 340 341 338 341 341 341 342 342 342 345 344 343 343 344 342 340 341 340 340
341 345 348 342 343 348 351 350 346 345 346 346 346 347 344 346 342 345 344 346 350 350 348 347 350 347 347 346 346 344 344 344 345 346 345 344 343 343 342 342 341 340 338 337 341 336 338 340 342 340 342 345 344 342 343 343 342 342 340 339 340 341
343 346 349 349 350 348 350 348 345 346 347 350 347 343 343 344 346 345 346 349 351 349 348 350 343 344 344 348 347 343 342 341 341 343 344 344 343 342 342 342 341 338 339 340 338 334 337 340 340 342 342 341 342 342 342 342 338 340 341 337 339 340
345 347 348 349 348 348 345 343 344 345 346 348 348 346 345 345 347 348 347 349 347 348 346 346 348 348 346 347 344 345 345 345 344 344 343 342 343 338 342 340 340 341 340 339 336 337 337 339 342 341 340 340 341 341 341 341 339 340 341 341 341 340
344 346 347 345 344 344 344 341 342 344 347 350 349 349 346 346 347 349 347 345 347 347 344 345 345 345 347 345 342 344 340 343 345 344 341 343 340 342 344 341 340 337 337 340 338 338 338 339 340 339 339 340 341 341 339 339 339 340 342 340 340 340
342 343 345 344 345 341 345 343 342 346 347 346 350 350 346 345 346 348 347 346 345 344 344 345 344 344 343 343 344 345 340 343 344 343 345 344 340 340 339 338 339 338 337 336 336 337 336 337 340 338 340 339 340 340 339 340 341 341 341 339 340 339
341 342 343 343 342 343 346 342 342 344 345 344 344 344 344 344 345 347 348 348 347 344 343 343 343 343 342 343 341 341 343 343 343 343 345 345 340 338 336 337 339 337 335 336 335 336 334 335 337 340 340 341 340 341 341 341 344 343 341 340 340 340
340 340 342 342 340 342 342 343 342 341 342 340 340 339 338 342 344 345 348 348 347 347 346 345 345 345 346 344 343 344 342 341 342 344 343 345 342 340 338 337 338 336 336 336 335 335 332 333 336 340 340 339 339 340 343 344 344 341 341 340 340 339
341 338 341 342 341 341 342 341 342 342 342 340 338 336 336 339 344 344 347 347 347 347 346 344 346 346 345 345 343 344 343 342 342 346 346 344 343 341 338 338 336 336 334 336 337 336 333 333 333 338 339 338 339 341 343 342 343 343 342 341 342 340
339 341 340 340 340 341 341 341 342 342 339 336 336 336 336 339 347 348 349 350 348 346 347 347 347 347 344 342 343 344 342 343 344 346 346 344 345 343 341 339 338 338 337 337 336 335 332 334 335 335 337 338 339 339 340 343 342 342 341 342 342 342
338 341 340 338 340 341 343 343 343 340 337 337 338 336 338 345 347 348 350 350 347 345 345 344 344 343 342 342 342 343 344 346 345 344 344 343 344 344 342 340 340 341 339 339 337 336 335 334 335 335 336 335 336 337 340 340 341 342 340 342 342 342
337 341 341 339 339 342 344 342 341 340 338 338 338 344 345 346 348 349 349 347 347 346 345 345 345 346 345 345 346 346 346 347 347 346 346 345 344 344 343 342 342 341 340 340 337 336 334 336 337 336 338 337 339 338 337 337 341 342 340 341 338 337
341 339 342 342 342 342 344 345 344 340 342 342 346 345 343 344 344 344 345 347 347 346 345 344 345 346 345 346 346 346 346 345 346 348 347 347 344 344 341 341 338 339 337 338 336 337 336 336 335 336 338 338 339 340 338 336 338 341 343 342 338 338
342 341 343 341 341 343 346 344 344 345 345 346 346 341 338 343 344 344 344 343 346 346 345 345 344 344 343 344 344 344 344 345 346 347 344 345 344 345 345 342 337 339 340 338 338 339 338 338 338 338 339 340 338 338 340 339 339 337 339 342 343 341
343 343 343 342 344 345 345 346 346 343 345 346 344 343 343 345 345 344 344 342 344 346 345 344 343 344 344 344 343 343 343 345 346 345 343 344 345 343 343 342 343 341 338 338 336 337 338 338 339 339 340 340 340 338 338 337 337 334 337 339 339 342
342 342 344 343 344 347 348 346 347 346 344 345 341 339 341 343 344 343 343 342 343 342 343 343 344 344 344 345 343 344 343 344 345 344 343 342 342 343 342 339 340 342 342 340 335 335 336 337 337 338 339 340 340 339 339 339 338 337 336 336 336 335
343 343 345 346 348 348 346 343 343 341 341 338 337 338 338 338 339 341 341 340 342 343 344 344 344 344 345 344 344 343 343 343 343 343 343 341 338 341 340 337 336 339 340 340 334 333 335 335 335 335 337 337 339 338 338 338 337 336 336 336 337 335
342 345 349 349 347 346 344 342 340 341 339 338 339 339 337 336 337 341 341 341 341 343 343 343 344 344 343 342 342 343 343 343 343 342 343 341 332 335 335 336 338 338 340 340 335 335 338 334 334 334 333 334 335 337 338 337 337 335 334 336 333 333
341 347 347 348 345 341 339 337 336 337 335 334 335 334 336 335 338 336 338 341 342 343 343 343 343 343 342 342 341 341 342 343 343 342 341 337 335 334 335 338 336 338 337 337 338 337 337 335 336 336 334 334 334 335 335 336 336 335 336 334 333 333
342 345 345 344 342 340 338 336 336 333 330 331 332 333 333 336 336 337 339 341 341 340 341 342 342 342 341 340 340 340 340 341 342 342 341 340 334 335 337 340 337 338 336 336 337 339 338 338 334 332 333 332 332 336 336 336 336 335 333 331 331 330
342 344 346 342 343 340 338 334 333 330 330 330 329 329 330 335 337 337 338 340 341 340 341 341 341 341 341 341 340 340 340 339 339 340 340 339 333 334 337 337 337 335 337 335 335 337 336 336 330 327 325 325 328 329 334 335 331 331 331 330 330 331
344 344 346 346 337 338 338 339 335 333 330 327 330 334 332 335 335 334 337 339 341 341 340 339 340 341 342 342 342 341 339 339 339 338 337 337 336 334 335 336 336 335 333 335 334 336 337 335 326 329 329 325 320 321 327 329 329 328 329 330 329 328
344 344 345 345 340 343 343 343 342 339 336 333 331 336 338 336 335 334 334 334 338 341 341 340 340 340 341 341 342 341 340 339 339 341 339 338 338 333 331 334 336 337 336 331 330 330 335 335 333 330 322 321 321 319 317 317 321 325 327 327 325 325
345 345 346 345 344 343 341 340 338 338 336 334 334 333 332 331 333 333 333 333 333 335 336 339 340 339 338 339 341 341 340 339 339 339 339 338 337 338 337 338 337 336 335 332 329 330 332 335 335 335 329 324 320 316 316 320 321 322 327 323 322 323
342 343 344 344 343 341 339 335 333 329 326 326 325 327 326 327 328 329 328 333 333 332 332 334 335 335 335 335 338 337 336 334 335 336 336 336 336 336 337 337 337 335 332 333 332 330 329 333 335 336 336 336 333 322 319 322 320 314 323 323 322 321
337 337 339 341 341 340 337 335 334 331 328 327 324 327 329 329 328 327 329 329 330 334 332 333 334 334 334 334 334 333 333 332 331 332 333 333 331 332 330 330 337 335 334 334 334 330 330 330 333 335 336 336 335 330 331 321 320 318 315 318 319 319
331 333 335 338 339 340 337 335 333 331 329 326 326 325 328 329 329 328 326 327 328 331 332 332 331 331 334 333 333 331 332 332 330 329 328 329 331 330 332 334 338 338 336 335 334 331 329 331 329 330 334 333 331 333 334 331 326 320 317 312 311 317
329 331 332 334 336 337 338 337 333 331 329 329 328 328 327 327 327 328 327 327 327 327 331 332 331 332 332 330 331 330 331 331 330 329 327 328 331 331 333 334 336 336 334 333 332 333 331 329 331 330 331 331 330 328 327 329 330 326 318 313 311 312
325 327 330 331 333 335 336 336 333 331 330 328 327 327 327 326 327 328 326 327 326 326 327 330 332 331 331 329 330 330 330 331 331 329 328 331 331 331 332 333 334 335 334 333 333 332 331 331 332 332 331 330 328 326 326 325 324 322 318 318 313 310
323 326 328 330 331 333 334 334 332 332 331 330 328 327 325 325 324 325 325 326 325 325 327 328 329 330 330 329 330 331 331 329 330 330 328 328 330 329 332 335 337 336 335 333 333 334 333 333 332 331 330 328 326 322 320 318 319 318 316 315 314 313
325 327 328 329 331 333 333 334 334 333 331 331 330 327 325 323 323 322 323 323 323 325 326 327 328 326 328 329 329 330 331 329 328 329 328 329 330 331 332 333 336 335 334 334 334 333 333 333 332 330 328 325 324 324 322 320 318 317 316 315 316 314
328 329 329 329 330 332 332 333 334 334 332 332 328 327 325 324 323 321 321 321 323 322 324 324 324 325 327 328 328 328 328 327 327 329 329 328 329 330 331 332 335 335 335 334 334 334 332 330 327 324 322 321 316 316 316 316 317 316 316 317 317 312
327 330 331 329 330 330 331 333 334 334 333 330 328 327 325 323 323 322 321 322 322 323 323 324 324 325 325 326 327 328 329 329 329 329 328 329 329 327 327 325 329 330 330 330 330 329 327 327 326 323 321 316 316 314 315 316 316 316 315 315 314 314
325 326 328 328 329 330 331 331 331 331 330 330 327 326 324 325 324 323 322 323 324 324 323 323 322 325 326 327 328 327 327 326 327 328 328 327 327 327 327 325 325 327 326 325 323 323 323 323 321 319 320 316 315 315 314 315 314 313 314 316 316 316
325 325 326 327 328 330 329 330 330 330 331 331 328 327 325 326 326 326 324 322 324 325 324 323 325 325 327 327 325 324 324 324 325 326 326 325 324 323 324 322 321 323 322 321 322 321 320 320 321 320 319 317 316 315 318 316 317 316 315 317 318 318
324 326 327 327 328 328 329 329 329 330 329 328 327 325 324 325 326 327 326 325 322 323 324 324 324 325 325 325 325 324 322 322 323 323 323 322 321 320 320 320 320 319 320 320 319 318 318 318 319 318 319 319 317 317 317 319 317 317 317 317 318 318
Wind_Speed
1 9 10 11 9 12 12 14 11 12 11 10 9 10 11 12 11 11 10 9 8 7 5 6 6 7 9 7 7 9 9 9 9 10 11 11 11 11 11 10 10 9 8 6 4 3 3 3 2 3 2 4 6 6 2 3 1 2 2 5 2 10
4 5 8 7 5 8 9 9 9 7 5 8 8 9 9 8 9 8 9 8 6 6 6 7 5 7 6 7 7 7 9 9 9 9 10 10 10 10 10 10 9 9 8 6 8 7 6 4 3 2 2 2 6 3 2 2 0 3 3 4 6 9
9 11 11 10 8 8 9 7 6 5 5 7 8 7 6 7 7 6 7 6 4 4 4 5 5 3 5 9 8 7 8 7 8 9 10 10 10 10 10 9 9 8 9 10 9 4 5 4 5 6 6 6 4 2 3 2 2 2 3 4 8 11
11 9 9 6 6 7 7 7 4 4 4 4 4 5 5 5 6 7 5 4 3 4 4 4 5 7 8 6 7 7 7 8 5 6 9 8 10 9 10 9 8 8 8 7 2 4 5 4 4 4 4 4 4 3 3 3 2 3 3 2 9 10
9 7 8 5 6 6 8 7 5 6 5 5 4 5 5 5 4 5 5 4 5 5 5 5 5 4 4 5 6 6 5 5 5 6 8 5 5 8 8 7 7 7 2 2 2 2 2 3 3 3 3 2 2 3 3 2 1 2 3 5 8 10
9 8 8 6 7 6 7 7 6 6 5 5 4 4 4 4 4 4 4 5 4 5 5 3 4 4 4 4 5 4 5 7 6 5 6 4 6 6 5 5 5 4 3 3 3 3 2 3 3 2 3 3 3 3 3 3 4 2 3 5 7 9
9 8 10 8 6 6 4 6 7 5 6 5 4 4 4 3 3 4 4 4 5 4 4 4 4 4 4 3 3 4 4 4 4 4 4 3 4 5 4 4 4 3 3 4 4 4 4 5 3 3 3 3 3 3 3 3 3 3 4 5 8 9
9 10 9 10 8 5 5 5 5 5 4 4 4 2 2 3 2 3 4 4 4 5 5 4 4 4 4 4 5 4 3 4 4 4 4 3 3 3 3 3 3 4 4 3 4 4 4 6 4 3 4 2 2 4 3 3 3 3 4 4 7 8
14 12 10 9 9 7 6 5 6 5 3 3 2 0 3 3 2 4 5 5 5 4 5 4 5 5 5 5 3 3 4 4 4 4 5 3 3 3 3 3 3 3 3 3 3 4 4 5 4 3 2 3 4 4 3 2 2 3 4 4 5 8
11 12 10 8 7 9 8 8 7 6 6 4 3 2 2 6 5 7 5 6 5 5 4 5 5 5 5 4 3 3 3 4 5 5 5 4 3 3 3 3 4 3 4 3 3 3 4 5 5 4 3 3 2 3 3 2 2 2 4 4 5 7
8 8 10 9 9 9 9 9 8 7 7 5 1 0 3 8 5 5 5 5 5 5 3 4 4 5 5 5 4 4 5 5 5 5 4 4 3 3 3 3 3 3 2 2 2 3 4 5 5 5 4 4 3 3 2 2 2 2 3 4 4 5
10 7 7 9 9 10 8 7 7 5 4 5 5 7 10 7 5 5 4 4 4 4 4 3 4 4 4 5 5 5 4 5 5 4 4 4 4 4 3 3 3 3 3 3 2 2 1 4 4 3 3 3 2 2 2 1 2 2 2 3 3 4
10 9 9 11 10 8 8 7 7 6 5 6 9 9 6 5 4 3 3 4 4 4 4 3 4 5 5 5 5 5 4 4 5 5 5 5 5 4 4 4 3 3 3 3 3 3 2 2 3 2 2 4 3 3 3 3 3 3 3 3 2 2
9 11 10 8 8 7 7 6 7 8 8 9 6 5 3 2 4 3 4 4 5 6 5 5 6 5 4 4 4 4 4 4 5 5 5 5 5 4 5 5 5 4 3 3 3 3 2 2 3 3 2 3 3 3 1 3 2 3 2 4 3 2
7 10 9 9 8 8 7 6 6 6 5 6 6 5 5 5 5 5 5 5 6 6 6 6 5 4 5 4 4 4 4 4 5 6 5 5 5 4 4 5 5 5 4 2 3 2 2 2 1 3 3 2 3 3 2 2 1 1 2 3 3 3
7 9 9 9 8 7 7 7 6 6 6 7 5 4 6 5 5 5 5 5 6 5 6 6 6 5 5 4 4 4 3 2 5 5 5 5 5 5 5 4 4 4 4 3 3 3 2 3 3 3 2 2 3 2 2 2 2 1 2 1 2 1
9 10 8 8 8 7 6 7 6 7 6 7 5 6 5 5 4 4 3 3 5 6 6 6 6 6 5 5 3 3 3 3 4 5 6 5 6 5 4 5 4 3 3 2 3 3 3 3 3 3 2 3 3 2 3 3 3 3 2 1 1 1
8 8 7 8 6 5 5 5 5 4 5 3 3 2 2 2 3 3 3 2 3 4 5 6 6 5 4 4 3 3 4 4 4 4 5 7 5 2 4 5 6 4 3 3 3 3 2 4 3 3 3 3 2 2 2 2 2 1 1 2 1 1
5 6 6 5 5 4 5 4 3 4 4 3 3 3 2 2 2 2 2 3 3 4 5 6 5 5 4 4 4 3 3 4 4 4 5 6 6 4 5 7 6 5 4 3 3 3 1 2 3 4 4 4 4 3 2 2 0 2 3 2 3 2
6 5 5 5 5 6 5 5 5 4 4 3 4 3 2 3 2 2 3 4 3 3 5 5 5 5 4 3 3 3 4 4 4 4 4 7 7 4 5 7 7 6 6 5 4 4 4 4 3 4 4 3 2 3 3 2 2 2 2 2 2 1
5 5 5 5 6 6 6 5 4 3 3 4 4 3 3 3 2 4 5 5 4 4 5 4 4 5 4 4 4 4 4 4 4 3 3 3 12 8 5 3 4 5 6 5 5 4 5 4 5 5 4 4 4 2 3 2 3 3 2 2 2 2
6 6 7 8 6 6 5 5 4 4 4 4 3 3 4 3 3 5 5 5 5 5 5 4 4 5 5 4 5 5 5 4 3 3 2 4 9 9 7 4 4 5 4 4 4 3 4 5 6 6 6 6 4 4 2 2 3 4 2 2 2 2
8 8 8 8 7 5 5 5 5 5 4 4 5 4 5 4 3 4 5 6 5 5 5 5 4 5 4 5 5 5 4 4 4 3 4 5 7 7 4 5 6 4 5 4 4 4 5 6 4 4 5 4 6 5 4 4 4 4 4 4 2 3
9 8 7 6 6 7 8 8 8 7 5 4 5 6 6 5 5 5 5 4 6 6 6 6 6 5 3 4 4 4 4 4 4 3 3 4 5 8 10 8 6 5 5 6 5 5 4 4 5 4 7 6 4 5 4 4 5 5 5 4 3 3
6 4 5 6 7 8 9 8 7 7 7 7 6 5 5 6 5 5 5 4 5 6 6 6 6 6 6 5 4 3 3 4 4 3 3 3 4 4 5 6 6 5 5 5 6 4 4 5 6 5 6 4 5 6 5 7 7 6 2 4 4 4
6 4 4 6 7 6 7 8 7 7 6 5 5 5 5 5 5 4 5 4 4 3 5 5 5 6 6 5 5 4 3 3 3 3 2 3 3 3 4 5 6 6 6 5 4 6 5 5 6 5 5 4 4 3 5 6 7 6 4 4 4 5
6 6 5 5 5 5 6 6 6 5 4 4 4 4 4 4 4 4 4 4 4 3 4 5 5 6 6 5 4 4 2 1 2 2 2 3 3 3 4 4 5 5 5 5 6 6 6 6 5 5 4 3 1 2 5 9 6 6 6 5 4 5
3 6 5 4 5 4 6 6 5 5 5 4 4 6 5 4 3 3 4 5 5 5 4 5 6 6 6 6 4 4 2 1 1 2 3 3 3 2 2 3 3 3 4 4 5 4 5 5 6 5 4 4 3 3 3 1 1 6 6 6 6 6
7 6 5 4 3 3 4 6 5 5 5 5 6 6 6 5 4 4 5 4 4 5 5 4 5 6 5 5 4 3 3 3 2 2 2 3 3 4 3 4 5 4 4 3 3 2 4 5 4 4 5 4 4 4 4 3 1 3 5 7 7 7
7 5 4 4 3 2 3 5 5 5 6 5 5 5 5 5 5 5 5 5 4 4 5 5 4 5 5 5 4 4 4 5 4 3 3 3 3 4 4 4 4 3 3 3 3 3 3 3 3 5 5 5 5 5 5 5 5 4 5 5 6 7
6 4 4 4 3 3 3 4 4 5 6 6 7 6 6 6 5 5 5 5 4 4 4 5 5 5 5 5 5 5 5 5 4 4 3 3 3 3 3 3 4 4 3 3 3 3 3 2 3 4 5 4 4 4 4 5 5 4 4 5 7 7
4 4 4 4 4 4 3 4 3 5 6 5 6 6 7 7 6 6 5 5 5 5 5 5 5 5 5 5 5 5 5 5 4 3 4 3 3 4 3 3 4 4 4 3 4 3 4 4 4 4 3 3 2 2 3 3 3 3 3 5 5 7
7 6 5 6 7 6 5 4 3 4 5 5 4 4 6 6 6 6 5 5 6 6 6 6 5 6 5 5 5 5 4 4 4 4 4 4 4 4 4 4 5 5 5 5 4 4 4 5 5 4 3 2 2 3 2 3 2 2 2 4 5 6
12 10 9 9 9 8 7 5 3 1 3 4 4 3 4 5 5 5 5 5 5 6 6 6 6 6 5 5 5 6 6 6 5 5 5 5 5 4 4 4 5 6 7 5 5 5 5 5 4 4 2 3 3 4 4 3 3 2 4 5 5 5
2 0 7 8 7 8 7 7 5 4 4 3 5 4 4 5 6 6 5 5 5 5 6 6 6 6 6 6 6 6 6 6 6 5 5 5 4 5 3 4 5 5 5 4 5 4 4 4 3 4 4 4 4 4 3 3 2 3 4 3 4 5
5 6 6 6 6 7 8 7 8 7 5 4 4 4 4 4 5 6 6 6 5 4 5 6 6 6 5 5 6 6 6 6 6 6 5 5 4 4 4 4 5 5 5 3 4 4 4 4 4 5 4 4 4 5 4 4 4 3 3 3 4 5
13 9 4 7 8 8 7 8 8 6 5 6 5 6 6 6 6 6 6 5 4 5 5 5 5 5 5 5 5 6 6 6 6 5 5 4 4 4 4 4 5 5 4 3 3 4 3 4 4 3 4 4 5 5 5 5 5 5 4 3 4 3
Wind_Direction
104 162 138 145 154 160 161 161 157 150 148 148 142 137 132 133 132 128 135 129 146 144 128 129 152 135 143 134 100 117 134 130 125 124 125 127 128 125 119 119 116 107 114 120 121 112 70 53 56 34 62 187 183 219 231 86 132 111 88 122 131 86
191 155 142 139 165 158 151 153 140 139 130 144 146 142 148 146 138 137 131 147 157 141 171 159 158 144 134 129 132 127 131 131 129 127 127 132 131 129 128 123 124 125 121 149 180 176 174 166 162 136 127 203 218 200 160 124 48 89 107 97 84 92
161 155 157 162 162 155 141 134 134 142 163 166 161 162 153 150 147 149 163 160 147 150 165 136 135 110 101 86 110 118 125 131 139 135 138 136 140 135 130 130 131 140 160 181 204 170 176 169 158 173 198 208 199 182 116 100 103 98 74 50 96 89
160 156 157 147 143 139 130 122 161 159 168 153 157 160 151 156 159 171 162 154 146 151 155 125 110 131 135 149 122 120 111 123 141 154 148 153 142 140 135 139 148 162 192 204 118 194 171 173 173 178 174 189 184 144 170 144 146 67 61 92 82 85
151 148 144 145 137 128 130 135 147 165 156 150 151 158 161 166 166 165 172 170 162 181 176 162 159 155 171 159 161 148 170 158 166 161 193 157 177 155 175 159 161 198 173 142 151 116 207 152 197 193 162 185 169 152 160 126 70 107 88 76 86 85
139 151 142 132 127 127 142 149 159 155 170 157 154 155 175 177 164 168 185 180 154 180 204 101 184 170 157 182 189 120 192 159 176 167 189 177 175 193 172 169 167 165 155 137 131 160 179 174 182 197 159 186 172 171 179 141 112 82 77 94 102 85
131 129 134 134 126 156 161 156 157 157 170 161 161 175 181 180 183 175 188 184 166 189 205 172 174 173 195 177 221 171 176 155 178 184 176 201 175 163 175 176 161 158 158 158 156 161 180 176 200 172 178 188 161 164 161 144 126 117 87 93 106 92
140 138 129 136 134 138 152 151 151 157 169 146 173 188 200 192 205 195 194 189 196 183 187 189 170 180 203 209 183 187 176 169 188 182 167 215 181 170 159 167 169 164 166 150 153 186 173 161 185 158 167 164 148 151 157 126 117 100 103 98 115 105
151 155 145 145 143 142 148 141 144 172 123 156 162 114 333 253 217 232 196 199 194 185 183 178 170 184 194 209 184 172 190 183 180 179 177 187 175 165 163 173 165 169 162 152 155 179 171 165 165 179 170 147 159 142 119 119 100 105 96 87 95 105
154 160 152 148 144 156 163 162 163 168 151 169 182 186 152 244 198 217 195 202 190 187 187 177 178 177 185 183 177 182 200 192 180 185 184 173 160 168 159 159 169 171 150 170 153 159 174 153 168 166 152 148 131 104 136 135 110 102 105 110 108 115
154 158 161 159 163 164 170 168 165 154 150 164 145 60 236 228 207 210 202 190 192 189 189 183 179 175 176 166 179 189 199 186 182 179 174 152 162 154 162 155 163 153 137 116 138 143 183 155 162 163 157 167 147 143 146 109 115 107 107 100 110 124
154 168 169 163 169 168 175 167 150 138 148 158 161 195 216 211 198 199 202 186 189 183 197 184 189 193 164 169 182 191 187 192 168 163 168 153 156 148 156 142 134 124 101 113 115 109 145 165 166 147 169 137 108 113 102 109 95 108 112 111 105 110
173 173 184 175 178 170 170 169 152 147 151 189 189 203 204 188 197 202 213 195 178 193 190 134 166 182 177 183 187 191 188 181 172 164 157 154 141 150 138 135 134 125 133 116 110 132 149 133 151 117 129 128 127 117 114 137 122 119 111 116 109 109
178 181 193 181 178 177 168 170 173 162 178 188 185 169 225 209 201 208 198 208 195 199 179 176 184 190 197 192 187 194 193 177 174 156 147 150 155 165 152 150 143 149 128 147 124 124 138 127 126 157 124 110 91 80 151 116 96 97 122 111 127 150
184 186 180 181 186 184 172 179 177 169 156 179 186 159 210 189 196 200 186 211 206 183 187 185 200 196 186 202 188 187 193 186 164 155 152 161 158 155 152 153 157 149 146 144 137 117 105 109 100 80 82 66 102 114 77 72 86 95 92 99 146 142
179 186 176 176 188 184 173 178 169 166 170 191 185 197 175 172 176 179 187 181 192 170 175 186 188 193 187 198 193 174 176 184 152 159 149 152 164 164 153 142 115 134 155 151 138 143 131 120 112 101 82 81 86 96 101 94 70 52 56 49 77 90
179 188 182 183 181 187 181 175 174 178 177 178 183 170 161 158 154 159 177 194 174 163 170 176 188 184 189 189 181 159 159 177 180 165 163 156 176 159 147 136 128 116 114 150 179 139 151 140 136 128 120 104 78 60 60 34 40 31 53 45 318 111
182 189 186 178 172 170 172 154 168 158 156 166 156 142 160 170 152 158 182 173 166 152 172 167 180 177 184 167 161 159 151 166 184 159 164 178 82 52 125 146 148 145 132 168 173 127 180 159 159 154 135 115 103 100 98 80 76 312 10 41 50 353
199 188 175 156 129 127 114 130 116 136 142 140 112 87 78 81 108 130 150 143 158 158 162 164 170 163 155 157 156 152 150 155 167 175 161 142 142 235 175 170 165 151 145 166 154 126 230 161 154 155 144 137 154 114 71 74 19 64 50 44 31 15
200 181 161 137 139 148 150 146 143 152 136 103 94 75 72 82 103 119 126 129 137 150 144 148 149 146 144 138 139 140 140 160 156 171 171 134 126 181 214 179 156 157 151 156 168 160 171 179 144 135 106 95 54 96 99 94 79 72 70 89 79 29
159 167 167 166 166 164 150 142 146 132 119 104 76 81 73 70 70 92 109 111 122 114 113 120 134 130 128 133 134 137 148 157 170 151 146 133 120 180 200 189 140 142 151 154 150 167 154 175 160 141 145 140 136 69 99 124 94 80 64 57 51 58
164 166 176 181 169 160 150 142 146 127 114 110 119 101 100 95 84 96 102 107 108 112 117 124 125 122 132 139 138 145 148 143 138 134 131 125 138 170 173 174 161 149 155 155 146 164 155 188 185 197 172 169 149 156 111 90 82 84 86 87 87 72
171 179 183 175 150 160 121 112 117 111 102 90 66 55 80 90 107 108 108 113 109 115 126 126 128 132 144 153 146 136 129 134 145 148 161 149 141 137 169 180 174 162 151 160 166 176 180 237 230 198 209 196 175 149 152 111 94 85 72 61 45 75
171 182 167 161 129 106 102 100 102 105 97 84 95 101 99 101 99 107 101 102 116 120 121 127 133 137 126 110 123 131 139 142 145 157 152 155 159 165 176 189 175 167 166 159 175 173 201 210 258 194 210 182 171 132 154 171 128 96 91 89 77 72
149 159 136 113 109 111 114 115 112 110 110 115 125 129 134 116 104 102 110 107 101 110 117 114 114 108 107 108 106 111 110 118 125 142 158 150 169 166 165 167 169 174 183 190 172 170 197 219 236 258 283 199 168 179 178 146 135 107 112 108 91 91
87 95 117 113 120 143 142 138 144 148 147 145 140 148 137 138 145 135 104 102 113 116 113 118 121 115 107 108 104 102 116 133 137 161 179 162 162 168 182 171 169 181 188 202 196 175 183 202 227 224 267 328 338 77 136 166 168 123 106 74 66 60
80 94 125 125 145 159 156 150 155 152 142 134 130 108 97 113 118 116 119 122 112 114 122 126 124 124 116 110 110 108 113 159 154 166 168 188 180 188 201 183 168 184 179 176 187 190 176 179 195 207 223 261 274 199 187 184 140 153 136 106 78 86
94 94 105 135 162 177 158 151 149 138 134 127 125 131 136 123 113 123 122 129 131 126 129 126 131 124 124 120 118 120 113 101 159 142 166 162 161 166 158 131 156 164 159 179 191 195 181 177 202 171 192 199 193 176 183 273 214 165 141 135 118 90
92 96 98 110 141 173 160 149 151 143 133 121 131 141 142 139 134 125 126 124 113 110 99 96 112 117 113 112 116 117 117 118 116 126 138 136 137 132 139 142 154 163 172 166 198 173 185 191 203 155 172 174 174 175 166 186 254 194 160 145 127 119
80 84 97 101 84 99 127 144 153 150 139 137 145 145 151 142 141 146 131 129 130 129 121 117 106 101 96 88 82 90 110 100 98 80 71 86 104 123 140 139 130 148 153 155 142 163 186 187 169 159 176 158 174 167 168 164 186 183 156 137 139 139
76 91 118 130 130 120 140 173 166 159 156 154 155 156 148 152 146 151 143 140 135 125 122 115 114 99 83 85 82 84 95 95 89 81 92 110 104 116 127 123 121 122 135 131 133 128 137 158 151 159 169 174 162 161 164 161 163 167 153 146 138 140
119 139 158 148 156 152 164 175 178 177 169 162 166 165 155 150 151 141 137 135 132 135 129 121 116 107 95 91 95 93 92 96 85 83 88 85 96 108 106 112 118 131 123 121 120 137 140 143 152 141 127 130 125 101 155 182 155 154 174 145 153 144
179 176 168 165 167 157 162 180 187 185 168 159 179 172 152 145 141 137 136 134 136 131 133 126 113 106 97 101 106 108 107 101 101 84 78 89 87 78 82 98 109 119 124 135 136 136 133 129 136 133 114 88 107 119 99 44 96 159 145 141 154 154
174 187 174 174 165 157 155 143 103 90 140 149 154 165 153 142 135 127 127 130 133 129 120 113 106 98 104 104 92 87 84 82 80 87 86 77 68 74 84 107 105 104 107 108 109 114 117 113 98 92 106 110 80 84 66 73 87 129 150 167 163 156
345 193 174 169 155 147 134 126 129 134 153 157 155 154 154 139 131 122 116 117 119 122 117 110 105 101 99 101 100 92 87 87 83 81 82 83 85 84 64 85 102 91 92 97 96 97 97 100 100 94 80 90 104 94 98 101 106 123 152 159 154 149
216 225 175 139 116 129 142 150 155 167 163 153 142 137 139 144 130 122 118 116 110 109 106 104 98 101 98 101 101 105 100 92 92 93 93 91 84 79 73 89 95 88 90 88 100 104 108 98 89 90 98 103 107 98 100 102 104 73 82 118 130 148
203 207 161 137 150 160 165 164 164 148 145 150 143 155 161 156 145 129 121 110 117 109 110 103 98 93 99 95 93 90 94 97 98 99 97 92 90 93 99 97 98 99 94 93 95 88 83 102 106 109 96 99 102 109 95 85 86 99 100 115 126 160